ARIANE 3 DEB, 33537

Orbit data source: Space-Track

ARIANE 3 DEB, 33537 is space debris in HEO originally from a launch on Thu, 08 Sep 1988 UTC launched from the French Guiana (FRGUI). Debris objects in space refer to the collection of defunct objects orbiting the Earth. Examples of debris include non-operational satellites, rocket bodies, and fragments generated from explosions, collisions, or faulty payload assembly.

Not visible in the next 10 days
Identifier
33537, 1988-081M
Orbit
HEO
Country
Flag of FRFR
Related business
Manufacturer
Unknown
Mission
Spacecraft
Bus & Motor
Unknown
Mass
Unknown
Launch date (UTC)
1988-09-08 (38 years ago)
Launch vehicle
Unknown
Launch site
French Guiana (FRGUI)
Object type
Payload
Rocket body
Debris
Shape & HBR
Unknown shape, 1.1 m
Radar Cross Section
Medium (>0.1 m² and <1 m²)

Expand to show TLE details & history
Last TLE update: 1 day ago

TLE from 1 day ago
0 ARIANE 3 DEB
1 33537U 88081M   26123.36246962 -.00000136  00000-0  00000-0 0  9999
2 33537   6.3106 113.6345 6995560  99.3426 330.4206  2.16839088103631
Epoch: 2026-05-03T08:41Z
TLE epoch observation values (Epoch: 2026-05-03T08:41:57.375Z)
Latitude
-1.68435°
Longitude
106.5969°
Altitude
11,783.908 km
Speed
5.299 km/s
True Right ascension
06h 33m 24s
True Declination
-1° 40' 49"
Sunlit
Object was in daylight at epoch
Visualization orbit readout
Latitude
Unknown
Longitude
Unknown
Altitude
Unknown
Speed
Unknown
Apparent Right ascension
Unknown
Apparent Declination
Unknown
Sunlit
N/A
Visualization observer readout
Local Sidereal Time
17:41:43
Azimuth
Unknown
Elevation
Unknown
Doppler factor
Unknown
Orbital elements
Apogee altitude
36,482.653 km
Perigee altitude
1,198.705 km
Semi-major axis
25,218.816 km
Eccentricity
0.69956
Inclination
6.3106°
RAAN
113.6345°
Arg. of periapsis
99.3426°
True anomaly
245.5688°
Mean anomaly
330.4206°
Eccentric anomaly
293.72696°
Mean motion
0.54195 °/min
Orbital period
664.27 mins
BSTAR
0
Loading maneuver chart data...
Computing Atmospheric mass density...
Loading historical data...
Loading historical data...
Loading historical data...
Loading historical data...
Loading historical data...
Loading historical data...
Loading historical data...

Documentation

Showing up to 5 results
|